Manistee, MI

12:08 AM EDT on May 24, 2017 (GMT -0400)
Manistee County-Blacker

Weather History for KMBL - November, 2011

Change the Weather History Date:

Thursday, November 17, 2011

  Actual Average Record
Temperature  
Mean Temperature 32 °F -  
Max Temperature 35 °F 45 °F 70 °F (1953)
Min Temperature 28 °F 33 °F 7 °F (1959)
Degree Days  
Heating Degree Days 34    
Moisture  
Dew Point 16 °F    
Average Humidity 52    
Maximum Humidity 64    
Minimum Humidity 44    
Precipitation  
Precipitation 0.00 in - - ()
Sea Level Pressure  
Sea Level Pressure 30.04 in    
Wind  
Wind Speed 15 mph (West)    
Max Wind Speed 18 mph    
Max Gust Speed 25 mph    
Visibility 10 miles    
Events      
Averages and records for this station are not official NWS values.
T = Trace of Precipitation, MM = Missing Value Source: NWS Daily Summary

Daily Weather History Graph

Daily Weather History Graph

Search for Another Location

Airport or City:

Trip Planner

Search our weather history database for the weather conditions in past years. The results will help you decide how hot, cold, wet, or windy it might be!

Date:

Astronomy

Nov. 17, 2011 Rise Set
Actual Time 7:42 AM EST 5:16 PM EST
Civil Twilight 7:11 AM EST 5:47 PM EST
Nautical Twilight 6:36 AM EST 6:23 PM EST
Astronomical Twilight 6:01 AM EST 6:57 PM EST
Moon 11:41 PM EST (11/17) 12:47 PM EST (11/17)
Length of Visible Light 10h 36m
Length of Day
9h 33m
Waning Gibbous, 60% of the Moon is Illuminated
Nov 17
Waning Gibbous
Nov 18
Last Quarter
Nov 25
New
Dec 2
First Quarter
Dec 10
Full

Hourly Weather History & Observations

Time (EST) Temp. Windchill Dew Point Humidity Pressure Visibility Wind Dir Wind Speed Gust Speed Precip Events Conditions
1:15 AM 35.6 °F 25.9 °F 17.6 °F 48% 29.99 in 10.0 mi WNW 16.1 mph 21.9 mph N/A   Mostly Cloudy
1:35 AM 35.6 °F 25.2 °F 17.6 °F 48% 29.98 in 10.0 mi NW 18.4 mph - N/A   Overcast
1:55 AM 35.6 °F 25.9 °F 17.6 °F 48% 29.98 in 10.0 mi NW 16.1 mph 20.7 mph N/A   Overcast
2:15 AM 35.6 °F 25.2 °F 15.8 °F 44% 29.98 in 10.0 mi West 18.4 mph 23.0 mph N/A   Overcast
2:35 AM 33.8 °F 23.5 °F 15.8 °F 48% 29.98 in 10.0 mi West 16.1 mph 25.3 mph N/A   Mostly Cloudy
2:55 AM 33.8 °F 23.5 °F 14.0 °F 44% 29.98 in 10.0 mi West 16.1 mph 23.0 mph N/A   Mostly Cloudy
3:15 AM 33.8 °F 23.5 °F 15.8 °F 48% 29.98 in 10.0 mi West 16.1 mph 24.2 mph N/A   Overcast
4:15 AM 32.0 °F 21.6 °F 14.0 °F 48% 29.98 in 10.0 mi WSW 15.0 mph - N/A   Overcast
4:35 AM 33.8 °F 24.3 °F 15.8 °F 48% 29.98 in 10.0 mi West 13.8 mph 18.4 mph N/A   Overcast
4:55 AM 32.0 °F 21.6 °F 15.8 °F 51% 29.97 in 10.0 mi West 15.0 mph 20.7 mph N/A   Overcast
5:15 AM 32.0 °F 23.6 °F 14.0 °F 48% 29.97 in 10.0 mi West 10.4 mph - N/A   Overcast
5:35 AM 32.0 °F 22.5 °F 15.8 °F 51% 29.97 in 10.0 mi WNW 12.7 mph 17.3 mph N/A   Overcast
5:55 AM 32.0 °F 21.6 °F 15.8 °F 51% 29.98 in 10.0 mi West 15.0 mph 18.4 mph N/A   Overcast
6:35 AM 30.2 °F 19.3 °F 17.6 °F 60% 29.97 in 6.0 mi West 15.0 mph - N/A   Mostly Cloudy
6:55 AM 30.2 °F 19.3 °F 17.6 °F 60% 29.98 in 10.0 mi WNW 15.0 mph - N/A   Overcast
7:15 AM 30.2 °F 20.8 °F 17.6 °F 60% 29.98 in 10.0 mi West 11.5 mph - N/A   Overcast
7:35 AM 30.2 °F 18.9 °F 15.8 °F 55% 29.99 in 10.0 mi WNW 16.1 mph - N/A   Overcast
7:55 AM 30.2 °F 18.9 °F 15.8 °F 55% 29.99 in 10.0 mi WNW 16.1 mph 21.9 mph N/A   Overcast
8:15 AM 30.2 °F 18.9 °F 15.8 °F 55% 30.00 in 10.0 mi WNW 16.1 mph 21.9 mph N/A   Overcast
8:35 AM - - - N/A% 30.00 in 10.0 mi WNW 17.3 mph - N/A   Overcast
8:55 AM 28.4 °F 15.8 °F 15.8 °F 59% 30.01 in 10.0 mi NW 18.4 mph - N/A   Overcast
9:15 AM 30.2 °F 18.9 °F 15.8 °F 55% 30.01 in 10.0 mi WNW 16.1 mph 21.9 mph N/A   Overcast
9:35 AM 28.4 °F 18.5 °F 15.8 °F 59% 30.02 in 10.0 mi WNW 11.5 mph - N/A   Overcast
10:35 AM 30.2 °F 19.8 °F 12.2 °F 47% 30.02 in 10.0 mi West 13.8 mph - N/A   Overcast
10:55 AM 30.2 °F 19.3 °F 12.2 °F 47% 30.03 in 10.0 mi West 15.0 mph 20.7 mph N/A   Overcast
11:15 AM 30.2 °F 20.2 °F 12.2 °F 47% 30.03 in 10.0 mi WNW 12.7 mph 21.9 mph N/A   Overcast
11:35 AM 30.2 °F 19.8 °F 12.2 °F 47% 30.03 in 10.0 mi WNW 13.8 mph - N/A   Overcast
11:55 AM 30.2 °F 18.9 °F 15.8 °F 55% 30.03 in 10.0 mi WNW 16.1 mph 19.6 mph N/A   Overcast
12:15 PM 30.2 °F 20.8 °F 15.8 °F 55% 30.03 in 8.0 mi WNW 11.5 mph 17.3 mph N/A   Mostly Cloudy
12:35 PM 30.2 °F 19.8 °F 19.4 °F 64% 30.02 in 5.0 mi West 13.8 mph 19.6 mph N/A   Mostly Cloudy
12:55 PM 30.2 °F 18.9 °F 17.6 °F 60% 30.02 in 10.0 mi WNW 16.1 mph 20.7 mph N/A   Overcast
1:15 PM 30.2 °F 18.5 °F 17.6 °F 60% 30.02 in 9.0 mi WNW 17.3 mph 20.7 mph N/A   Overcast
1:35 PM 30.2 °F 21.3 °F 17.6 °F 60% 30.03 in 10.0 mi West 10.4 mph - N/A   Overcast
1:55 PM 30.2 °F 18.9 °F 17.6 °F 60% 30.02 in 10.0 mi West 16.1 mph 19.6 mph N/A   Mostly Cloudy
2:15 PM 32.0 °F 21.6 °F 17.6 °F 55% 30.03 in 10.0 mi West 15.0 mph 19.6 mph N/A   Overcast
2:35 PM 32.0 °F 20.5 °F 17.6 °F 55% 30.03 in 10.0 mi West 18.4 mph 24.2 mph N/A   Overcast
2:55 PM 32.0 °F 21.6 °F 15.8 °F 51% 30.03 in 10.0 mi West 15.0 mph - N/A   Overcast
3:15 PM 32.0 °F 22.5 °F 15.8 °F 51% 30.04 in 10.0 mi West 12.7 mph 21.9 mph N/A   Overcast
3:35 PM 32.0 °F 21.6 °F 15.8 °F 51% 30.05 in 10.0 mi West 15.0 mph - N/A   Overcast
3:55 PM 32.0 °F 23.0 °F 15.8 °F 51% 30.05 in 10.0 mi WNW 11.5 mph 19.6 mph N/A   Overcast
4:15 PM 30.2 °F 21.3 °F 17.6 °F 60% 30.06 in 9.0 mi WNW 10.4 mph - N/A   Overcast
5:15 PM 33.8 °F 25.3 °F 14.0 °F 44% 30.07 in 10.0 mi West 11.5 mph 21.9 mph N/A   Overcast
5:55 PM 33.8 °F 24.8 °F 15.8 °F 48% 30.08 in 10.0 mi West 12.7 mph 17.3 mph N/A   Overcast
6:15 PM 33.8 °F 25.3 °F 14.0 °F 44% 30.09 in 10.0 mi West 11.5 mph - N/A   Overcast
6:35 PM 33.8 °F 23.9 °F 14.0 °F 44% 30.10 in 10.0 mi West 15.0 mph 19.6 mph N/A   Overcast
6:55 PM 33.8 °F 23.9 °F 14.0 °F 44% 30.11 in 10.0 mi West 15.0 mph - N/A   Overcast
7:55 PM 32.0 °F 23.6 °F 14.0 °F 48% 30.12 in 10.0 mi WNW 10.4 mph 16.1 mph N/A   Overcast
8:35 PM 32.0 °F 23.6 °F 15.8 °F 51% 30.12 in 10.0 mi West 10.4 mph 16.1 mph N/A   Overcast
8:55 PM 32.0 °F 23.0 °F 14.0 °F 48% 30.12 in 10.0 mi West 11.5 mph 19.6 mph N/A   Overcast
9:15 PM 32.0 °F 23.0 °F 12.2 °F 44% 30.13 in 10.0 mi West 11.5 mph 17.3 mph N/A   Overcast
9:35 PM 32.0 °F 24.8 °F 15.8 °F 51% 30.13 in 10.0 mi West 8.1 mph - N/A   Overcast
9:55 PM 32.0 °F 22.5 °F 15.8 °F 51% 30.13 in 10.0 mi WSW 12.7 mph 17.3 mph N/A   Overcast
10:35 PM 32.0 °F 24.2 °F 15.8 °F 51% 30.14 in 10.0 mi West 9.2 mph 16.1 mph N/A   Overcast
10:55 PM 30.2 °F 22.6 °F 15.8 °F 55% 30.14 in 10.0 mi West 8.1 mph - N/A   Mostly Cloudy
11:35 PM 32.0 °F 24.2 °F 15.8 °F 51% 30.14 in 10.0 mi West 9.2 mph 16.1 mph N/A   Overcast
11:55 PM 32.0 °F 23.0 °F 15.8 °F 51% 30.14 in 10.0 mi West 11.5 mph - N/A   Overcast